[[{"header":{"parameterUnit":"m.s-1","parameterCategory":2,"la1":30.2991,"la2":30.254,"lo1":-89.0895,"lo2":-89.0444,"dy":0.0017,"dx":0.0017,"nx":28,"ny":28,"refTime":"2023-09-07T03:00:00:Z","depth":"0","parameterNumber":2,"parameterNumberName":"U-component_of_CURRENTS"},"data":[0,0,0,0,0,0,0,0,0,0,0,0,0,0,0,0,0,0,0,0,0,0,0,0,0,0,0,0,0,0,0,0,0,0,0,0,0,0,0,0,0,0,0,0,0,0,0,0,0,0,0,0,0,0,0,0,0,0,0.2166,0.2163,0,0.2044,0.2044,0.2045,0.2062,0.2062,0.2063,0.2063,0.2198,0.2201,0.2204,0,0,0,0,0,0,0,0,0,0,0,0,0,0.2575,0.2568,0.2166,0.2163,0.216,0.2044,0.2044,0.2045,0.2062,0.2062,0.2063,0.2063,0.2197,0.2201,0.2205,0,0,0,0,0,0,0,0,0,0,0,0,0,0.2438,0.2566,0.2167,0.214,0.2135,0.2044,0.2044,0.2045,0.2062,0.2062,0.2063,0.2063,0.2195,0.22,0.2205,0.223,0,0,0.2221,0.2223,0,0,0,0,0,0,0,0,0.2446,0.2426,0.2147,0.2141,0.2135,0.2051,0.2236,0.2113,0.2062,0.2111,0.2063,0.2063,0.2159,0.2167,0.2169,0.2237,0.2242,0.2221,0.2224,0.2227,0.2228,0,0,0,0,0,0,0,0.2455,0.2432,0.2138,0.2143,0.2135,0.2187,0.2169,0.2215,0.2155,0.2107,0.2103,0.2057,0.2161,0.2163,0.2172,0.2244,0.2221,0.2226,0.2229,0.2231,0.2388,0.2389,0,0,0,0,0,0,0.2419,0.2439,0.2142,0.2133,0.2272,0.2177,0.2158,0.2094,0.2149,0.2149,0.2057,0.2058,0.2155,0.2166,0.2177,0.2246,0.2226,0.2231,0.2234,0.2387,0.2389,0.239,0,0,0,0,0,0,0.2428,0.2393,0.2146,0.227,0.2239,0.2166,0.2097,0.2091,0.2087,0.2104,0.2115,0.2055,0.2155,0.217,0.2237,0.225,0.2234,0.2238,0.2386,0.2388,0.2389,0.2361,0,0,0,0,0,0,0.2441,0.2398,0.236,0.2265,0.2229,0.2095,0.2094,0.2088,0.2048,0.205,0.2107,0.2119,0.2157,0.2229,0.2242,0.2257,0.2242,0.2384,0.2387,0.2389,0.236,0.2361,0.2362,0,0,0,0,0,0.2456,0.236,0.2358,0.2322,0.2172,0.2092,0.2083,0.2048,0.2048,0.2049,0.21,0.2117,0.2251,0.2234,0.2249,0.2265,0.2383,0.2386,0.2389,0.236,0.2361,0.2362,0,0,0,0,0,0,0.2466,0.2348,0.2345,0.2206,0.2166,0.2088,0.2056,0.2043,0.2079,0.2088,0.2136,0.2153,0.2218,0.2247,0.2227,0.2318,0.2319,0.2324,0.2292,0.2293,0.2294,0.2267,0.2246,0,0,0,0,0,0.246,0.2389,0.2299,0.2194,0.2175,0.2131,0.2096,0.2074,0.2068,0.2081,0.2123,0.2178,0.2239,0.2269,0.2324,0.2373,0.2371,0.2393,0.2394,0.2395,0.2384,0.2403,0.2404,0.2398,0.2398,0.2398,0,0,0.2418,0.2352,0.2301,0.22,0.2169,0.2142,0.2116,0.2051,0.2056,0.2095,0.2141,0.2186,0.2254,0.2315,0.2344,0.234,0.2393,0.2398,0.2397,0.2387,0.2406,0.2406,0.2406,0.24,0.24,0.2399,0,0,0.2333,0.2267,0.2214,0.2195,0.2137,0.2122,0.2105,0.2056,0.2074,0.2106,0.2148,0.2194,0.2278,0.2324,0.2361,0.2399,0.2401,0.242,0.24,0.2419,0.2419,0.2419,0.2397,0.2395,0.2416,0.2416,0.2416,0,0.231,0.2222,0.2186,0.216,0.2137,0.2119,0.2092,0.2105,0.2092,0.2118,0.2123,0.2232,0.2281,0.2355,0.2367,0.2398,0.2396,0.2388,0.2417,0.2417,0.2417,0.2395,0.2394,0.2415,0.2415,0.2415,0.2415,0,0.2217,0.2171,0.2134,0.2122,0.2104,0.2062,0.2071,0.2092,0.211,0.2122,0.219,0.2247,0.2307,0.2331,0.2362,0.2398,0.2389,0.2416,0.2404,0.2415,0.2392,0.2391,0.2413,0.2414,0.2414,0.2414,0,0,0.2117,0.2084,0.2078,0.2093,0.2086,0.2056,0.2092,0.2114,0.2136,0.2167,0.2198,0.2285,0.2296,0.2337,0.2376,0.2382,0.2373,0.2391,0.2393,0.2351,0.2382,0.2175,0.2153,0.2405,0.2405,0.2405,0.2356,0,0.208,0.2037,0.203,0.2018,0.2011,0.204,0.2072,0.21,0.214,0.2179,0.2236,0.2282,0.2309,0.2326,0.2344,0.2376,0.2372,0.2382,0.2394,0.2393,0.2193,0.2146,0.2018,0.1946,0.2355,0.2355,0.2354,0,0.2022,0.2009,0.1984,0.2003,0.2001,0.2,0.2055,0.2076,0.2145,0.2174,0.2224,0.2266,0.2305,0.2314,0.235,0.2355,0.2361,0.2368,0.2368,0.218,0.2182,0.2009,0.1928,0.1856,0.2352,0.2353,0.2353,0,0.201,0.1984,0.1973,0.1975,0.1988,0.2001,0.2017,0.2074,0.2099,0.2163,0.2173,0.2242,0.2258,0.2292,0.2301,0.2334,0.2305,0.2363,0.2179,0.2165,0.2057,0.2031,0.1889,0.2371,0.2371,0.2371,0.2371,0,0.1992,0.1991,0.1964,0.1963,0.1965,0.1979,0.1995,0.2033,0.2068,0.2082,0.2159,0.2171,0.2251,0.2254,0.2279,0.2184,0.2291,0.214,0.2128,0.2039,0.2013,0.1946,0.1944,0.2369,0.237,0.237,0.237,0,0.2013,0.1985,0.1972,0.1962,0.196,0.1964,0.1969,0.1982,0.2013,0.2029,0.2041,0.211,0.2085,0.2118,0.2145,0.2112,0.1978,0.2023,0.1875,0.1842,0.1561,0.1562,0.1367,0.1344,0.1802,0.1796,0.1791,0,0.2032,0.2019,0.1972,0.1953,0.1952,0.1949,0.1947,0.1962,0.1961,0.1983,0.1981,0.1967,0.195,0.1869,0.1798,0.1732,0.1758,0.1559,0.1583,0.147,0.147,0.1476,0.1478,0.1449,0.1442,0.1436,0.1432,0,0.2076,0.204,0.2023,0.1967,0.1942,0.1915,0.1902,0.1885,0.1888,0.1879,0.1844,0.1826,0.1718,0.1569,0.1437,0.14,0.1421,0.1427,0.1388,0.1201,0.113,0.1128,0.1545,0.138,0.1385,0.1389,0.1391,0.1394,0.2103,0.2085,0.2019,0.1969,0.1933,0.1864,0.181,0.1787,0.1739,0.1675,0.1704,0.16,0.1418,0.1199,0.1133,0.0872,0.1015,0.0834,0.0855,0.0879,0.0801,0.1036,0.0801,0.0803,0.0804,0.0806,0.0807,0,0.21,0.206,0.2024,0.1917,0.1841,0.1831,0.1758,0.1679,0.1578,0.1532,0.1464,0.1191,0.0975,0.0805,0.048,0.0354,0.0425,0.032,0.0373,0.042,0.0688,0.0613,0.0231,0.0231,0.0231,0.0231,0.0231,0.0231,0.209,0.2027,0.1983,0.1827,0.1758,0.1618,0.1548,0.1463,0.1388,0.119,0.1008,0.0921,0.0644,0.0251,-0.0016,-0.0022,0.0022,-0.0072,0.003,0.0274,0.0328,0.038,0.0309,-0.0132,-0.0132,-0.0237,-0.0239,-0.024]},{"header":{"parameterUnit":"m.s-1","parameterCategory":2,"la1":30.2991,"la2":30.254,"lo1":-89.0895,"lo2":-89.0444,"dy":0.0017,"dx":0.0017,"nx":28,"ny":28,"refTime":"2023-09-07T03:00:00:Z","depth":"0","parameterNumber":3,"parameterNumberName":"V-component_of_CURRENTS"},"data":[0,0,0,0,0,0,0,0,0,0,0,0,0,0,0,0,0,0,0,0,0,0,0,0,0,0,0,0,0,0,0,0,0,0,0,0,0,0,0,0,0,0,0,0,0,0,0,0,0,0,0,0,0,0,0,0,0,0,-0.0324,-0.0322,0,-0.0218,-0.0217,-0.0217,-0.0194,-0.0194,-0.0194,-0.0194,-0.0308,-0.0311,-0.0314,0,0,0,0,0,0,0,0,0,0,0,0,0,-0.0612,-0.0607,-0.0324,-0.0322,-0.032,-0.0218,-0.0217,-0.0217,-0.0194,-0.0194,-0.0194,-0.0194,-0.0307,-0.0311,-0.0314,0,0,0,0,0,0,0,0,0,0,0,0,0,-0.0504,-0.0606,-0.0325,-0.0289,-0.0283,-0.0218,-0.0217,-0.0217,-0.0194,-0.0194,-0.0194,-0.0194,-0.0306,-0.031,-0.0315,-0.035,0,0,-0.033,-0.0332,0,0,0,0,0,0,0,0,-0.051,-0.0495,-0.0296,-0.0291,-0.0285,-0.021,-0.036,-0.0268,-0.0195,-0.0239,-0.0194,-0.0194,-0.0289,-0.0295,-0.0287,-0.0355,-0.036,-0.033,-0.0333,-0.0335,-0.0336,0,0,0,0,0,0,0,-0.0518,-0.05,-0.0293,-0.0293,-0.0286,-0.0312,-0.0297,-0.0343,-0.0279,-0.0235,-0.0231,-0.0202,-0.0289,-0.0283,-0.029,-0.0361,-0.033,-0.0334,-0.0337,-0.0339,-0.0437,-0.0437,0,0,0,0,0,0,-0.0503,-0.0506,-0.0296,-0.0288,-0.0388,-0.0306,-0.029,-0.0243,-0.0274,-0.0273,-0.0203,-0.0202,-0.0275,-0.0285,-0.0295,-0.0308,-0.0335,-0.0339,-0.0342,-0.0437,-0.0437,-0.0436,0,0,0,0,0,0,-0.051,-0.0485,-0.03,-0.0389,-0.0365,-0.03,-0.0249,-0.0241,-0.0225,-0.0244,-0.0251,-0.0193,-0.0275,-0.0288,-0.0329,-0.0314,-0.0342,-0.0346,-0.0437,-0.0437,-0.0437,-0.0356,0,0,0,0,0,0,-0.0519,-0.0488,-0.0464,-0.0386,-0.0359,-0.0253,-0.0247,-0.0238,-0.0203,-0.0201,-0.0239,-0.0249,-0.0276,-0.0322,-0.0334,-0.0321,-0.035,-0.0438,-0.0437,-0.0437,-0.0359,-0.0353,-0.0348,0,0,0,0,0,-0.0529,-0.0477,-0.0464,-0.0438,-0.0323,-0.0251,-0.0241,-0.0203,-0.0203,-0.0192,-0.0221,-0.0247,-0.0326,-0.0326,-0.034,-0.0328,-0.0438,-0.0437,-0.0437,-0.0362,-0.0355,-0.0348,0,0,0,0,0,0,-0.0565,-0.0467,-0.0451,-0.0365,-0.0313,-0.0243,-0.022,-0.02,-0.0211,-0.0219,-0.0254,-0.0266,-0.0293,-0.0328,-0.0326,-0.0355,-0.0383,-0.0386,-0.0322,-0.0315,-0.031,-0.028,-0.0354,0,0,0,0,0,-0.0566,-0.0512,-0.043,-0.0361,-0.0339,-0.0288,-0.0258,-0.0229,-0.0214,-0.0215,-0.0239,-0.0274,-0.0302,-0.0322,-0.0356,-0.0383,-0.0367,-0.0383,-0.0377,-0.0372,-0.0358,-0.0304,-0.029,-0.0434,-0.0434,-0.0434,0,0,-0.0556,-0.0494,-0.0461,-0.0368,-0.0331,-0.0286,-0.0272,-0.0216,-0.0188,-0.0234,-0.0231,-0.0261,-0.0306,-0.0323,-0.0338,-0.0351,-0.0324,-0.0371,-0.0366,-0.0355,-0.0301,-0.0287,-0.0274,-0.0434,-0.0434,-0.0434,0,0,-0.0505,-0.0462,-0.041,-0.0373,-0.0305,-0.0278,-0.0261,-0.0203,-0.0196,-0.0193,-0.0214,-0.0224,-0.0281,-0.0285,-0.0302,-0.029,-0.0296,-0.0314,-0.0262,-0.0209,-0.0196,-0.0184,-0.0142,-0.0127,-0.031,-0.0309,-0.0309,0,-0.0508,-0.0416,-0.0385,-0.0333,-0.0297,-0.0275,-0.0224,-0.0212,-0.0176,-0.0171,-0.0187,-0.0212,-0.0252,-0.0246,-0.024,-0.0273,-0.0252,-0.0281,-0.0197,-0.0185,-0.0174,-0.0135,-0.0119,-0.0305,-0.0306,-0.0306,-0.0307,0,-0.0418,-0.0363,-0.033,-0.0265,-0.0234,-0.0183,-0.0157,-0.0144,-0.0143,-0.0126,-0.0121,-0.0151,-0.0156,-0.0172,-0.0209,-0.0158,-0.0171,-0.0193,-0.0205,-0.0154,-0.0117,-0.0102,-0.03,-0.0301,-0.0302,-0.0303,0,0,-0.038,-0.0289,-0.0278,-0.0246,-0.0196,-0.0152,-0.0131,-0.0092,-0.0061,-0.0062,-0.0015,-0.0055,-0.0057,-0.0076,-0.0105,-0.0068,0.0021,-0.0099,-0.0098,-0.0039,0.0137,0.0117,0.0131,0.0017,0.002,0.0022,0.0135,0,-0.0327,-0.0224,-0.0195,-0.012,-0.0076,-0.0068,-0.0041,-0.0015,-0.0008,0.0031,0.0015,0.0035,-0.0026,-0.0014,0.0013,0.0018,0.0063,-0.0008,0.0064,0.0066,0.0057,0.0148,0.0184,0.0287,0.0149,0.0152,0.0154,0,-0.0254,-0.0195,-0.0108,-0.0045,-0.0025,0.0012,0.0059,0.009,0.0121,0.013,0.0149,0.0137,0.0174,0.0126,0.0187,0.0144,0.0149,0.0155,0.016,0.0125,0.0074,0.0211,0.0319,0.0359,0.0176,0.0175,0.0173,0,-0.0237,-0.0141,-0.0072,-0.0047,0.0027,0.0055,0.0087,0.0121,0.0159,0.0206,0.0248,0.0268,0.0308,0.0319,0.0298,0.026,0.0375,0.0327,0.032,0.0317,0.0355,0.0351,0.0527,0.0398,0.0397,0.0397,0.0397,0,-0.0193,-0.0143,-0.0056,-0.0017,0.0061,0.0092,0.0168,0.0196,0.0257,0.0325,0.0309,0.0376,0.0363,0.0401,0.0367,0.0395,0.0435,0.0361,0.0361,0.038,0.0377,0.0414,0.0416,0.0401,0.04,0.0399,0.0399,0,-0.019,-0.0133,-0.0045,0.0047,0.0076,0.0133,0.0225,0.0283,0.0328,0.0425,0.045,0.0495,0.0544,0.0515,0.0554,0.0504,0.0551,0.051,0.0523,0.0521,0.0529,0.0532,0.069,0.0722,0.0544,0.0544,0.0544,0,-0.0176,-0.0126,0.0001,0.0063,0.0106,0.019,0.0254,0.0315,0.0383,0.0498,0.0559,0.0626,0.0678,0.0712,0.0651,0.0626,0.0614,0.0625,0.0555,0.0573,0.0577,0.0569,0.0583,0.0643,0.0644,0.0645,0.0646,0,-0.0142,-0.0093,-0.0014,0.0108,0.0192,0.0284,0.0376,0.0438,0.0524,0.0603,0.0719,0.0772,0.0804,0.0805,0.0746,0.0712,0.0677,0.0641,0.0684,0.0703,0.0687,0.0702,0.0509,0.0654,0.0653,0.0652,0.0652,0.0652,-0.0104,-0.0047,0.0069,0.0174,0.0268,0.037,0.0435,0.0531,0.0641,0.0768,0.0825,0.0912,0.0918,0.0849,0.0816,0.0776,0.0748,0.0755,0.0769,0.0768,0.0775,0.0585,0.0698,0.0698,0.0697,0.0697,0.0696,0,-0.0033,0.0031,0.013,0.0264,0.0353,0.0393,0.0517,0.0577,0.0692,0.0823,0.0921,0.0983,0.1008,0.0969,0.0913,0.0909,0.0901,0.0911,0.0939,0.0954,0.0828,0.0806,0.0918,0.0918,0.0918,0.0918,0.0918,0.0918,0.0022,0.0125,0.0165,0.0319,0.0394,0.0495,0.0557,0.0647,0.0739,0.0876,0.0939,0.0987,0.0983,0.104,0.106,0.1053,0.1094,0.1082,0.1089,0.1017,0.1004,0.0991,0.0973,0.1119,0.1119,0.1228,0.1229,0.123]}],[{"header":{"parameterUnit":"m.s-1","parameterCategory":2,"la1":30.2991,"la2":30.254,"lo1":-89.0895,"lo2":-89.0444,"dy":0.0017,"dx":0.0017,"nx":28,"ny":28,"refTime":"2023-09-07T03:00:00:Z","depth":"2","parameterNumber":2,"parameterNumberName":"U-component_of_CURRENTS"},"data":[0,0,0,0,0,0,0,0,0,0,0,0,0,0,0,0,0,0,0,0,0,0,0,0,0,0,0,0,0,0,0,0,0,0,0,0,0,0,0,0,0,0,0,0,0,0,0,0,0,0,0,0,0,0,0,0,0,0,0.1189,0.1189,0,0.1171,0.117,0.1169,0.1198,0.1199,0.1201,0.1203,0.1278,0.1278,0.1279,0,0,0,0,0,0,0,0,0,0,0,0,0,0.1192,0.1192,0.1189,0.1189,0.119,0.1171,0.117,0.1169,0.1197,0.1199,0.1202,0.1204,0.1278,0.1278,0.1279,0,0,0,0,0,0,0,0,0,0,0,0,0,0.1176,0.1191,0.1189,0.1208,0.1211,0.1171,0.117,0.1169,0.1197,0.12,0.1202,0.1205,0.1278,0.1278,0.1279,0.1228,0,0,0.128,0.128,0,0,0,0,0,0,0,0,0.1177,0.1174,0.1205,0.1207,0.121,0.1197,0.1199,0.1196,0.1196,0.1192,0.1203,0.1206,0.1264,0.1265,0.1242,0.1231,0.1234,0.128,0.1281,0.1281,0.1281,0,0,0,0,0,0,0,0.1178,0.1175,0.1173,0.1206,0.1208,0.12,0.12,0.1197,0.1208,0.1193,0.1197,0.1209,0.1265,0.1241,0.1244,0.1235,0.128,0.1281,0.1281,0.1281,0.135,0.1352,0,0,0,0,0,0,0.1198,0.1176,0.1173,0.1173,0.121,0.1199,0.1198,0.1191,0.1206,0.1213,0.1207,0.121,0.1239,0.1244,0.1247,0.1318,0.1281,0.1281,0.1282,0.1349,0.135,0.1352,0,0,0,0,0,0,0.1197,0.1197,0.1174,0.1183,0.1181,0.1197,0.1188,0.119,0.1208,0.1217,0.1224,0.1231,0.1241,0.1247,0.1289,0.1317,0.1281,0.1282,0.1347,0.1349,0.1351,0.1378,0,0,0,0,0,0,0.1197,0.1196,0.1188,0.1183,0.1181,0.1192,0.1186,0.1188,0.1213,0.1219,0.1239,0.1246,0.1244,0.1288,0.1289,0.1317,0.1282,0.1345,0.1348,0.135,0.1375,0.1381,0.1385,0,0,0,0,0,0.1197,0.1184,0.1187,0.1188,0.1172,0.1195,0.1192,0.1206,0.1212,0.123,0.1245,0.1247,0.1308,0.1289,0.129,0.1319,0.1343,0.1347,0.135,0.1372,0.1379,0.1385,0,0,0,0,0,0,0.1195,0.1186,0.119,0.1179,0.1207,0.1204,0.1206,0.1222,0.1238,0.1243,0.1255,0.1263,0.1318,0.1313,0.1292,0.1351,0.133,0.1334,0.1347,0.1354,0.1359,0.1333,0.1283,0,0,0,0,0,0.1187,0.1169,0.1186,0.1184,0.1191,0.1201,0.1208,0.1226,0.1244,0.1253,0.1269,0.1289,0.132,0.1336,0.1356,0.1371,0.1367,0.1396,0.1402,0.1406,0.1389,0.1428,0.1435,0.1363,0.1363,0.1363,0,0,0.1189,0.1182,0.1174,0.1182,0.1186,0.12,0.1211,0.1233,0.1261,0.1258,0.129,0.1312,0.1333,0.1366,0.1388,0.137,0.1424,0.141,0.1414,0.1394,0.1432,0.1439,0.1445,0.1366,0.1365,0.1365,0,0,0.119,0.1175,0.1165,0.1185,0.1209,0.121,0.1232,0.1248,0.1275,0.1309,0.1324,0.1362,0.1392,0.141,0.1425,0.1469,0.146,0.1487,0.1479,0.1519,0.1524,0.1529,0.1523,0.1527,0.1478,0.1478,0.1478,0,0.1193,0.1179,0.1175,0.1186,0.1201,0.1223,0.1242,0.1262,0.13,0.1314,0.1337,0.1383,0.1412,0.1447,0.1467,0.148,0.1482,0.1451,0.1524,0.1529,0.1533,0.1526,0.153,0.148,0.148,0.148,0.1479,0,0.1196,0.1192,0.1193,0.1197,0.1219,0.1236,0.1276,0.1297,0.1324,0.1343,0.14,0.1431,0.1452,0.1483,0.1486,0.1531,0.1515,0.1534,0.1501,0.1541,0.1532,0.1536,0.1482,0.1482,0.1481,0.1481,0,0,0.1179,0.1186,0.1189,0.1198,0.1225,0.1245,0.128,0.1311,0.1338,0.1377,0.1412,0.1467,0.147,0.1486,0.1506,0.1537,0.1578,0.154,0.1542,0.1522,0.1631,0.1485,0.1475,0.1612,0.1613,0.1614,0.1607,0,0.1181,0.1191,0.1197,0.1222,0.1231,0.1256,0.129,0.1327,0.1366,0.1402,0.1438,0.1493,0.148,0.1511,0.1527,0.1587,0.159,0.1575,0.1604,0.1604,0.1461,0.1475,0.1348,0.1319,0.1611,0.1611,0.1612,0,0.1179,0.1184,0.1203,0.1228,0.1236,0.1257,0.1298,0.1337,0.1385,0.1416,0.144,0.1485,0.1528,0.1534,0.1585,0.1576,0.1586,0.1617,0.1619,0.1469,0.1465,0.133,0.1314,0.1618,0.1617,0.1617,0.1616,0,0.1167,0.1187,0.1196,0.1209,0.1243,0.1261,0.1281,0.1334,0.1371,0.1435,0.1462,0.1509,0.1542,0.1584,0.1604,0.1621,0.1648,0.169,0.1549,0.1539,0.1424,0.14,0.1706,0.1706,0.1706,0.1706,0.1706,0,0.1152,0.1167,0.1192,0.1201,0.1223,0.126,0.1297,0.1324,0.1377,0.1403,0.1464,0.1485,0.1562,0.1581,0.1607,0.1553,0.164,0.1528,0.1527,0.1427,0.1404,0.1663,0.1658,0.1705,0.1705,0.1706,0.1706,0,0.1139,0.1152,0.1173,0.1207,0.1216,0.1242,0.1291,0.1316,0.1369,0.1406,0.1435,0.148,0.1497,0.1526,0.1586,0.153,0.1538,0.1488,0.1328,0.1305,0.1406,0.1403,0.1366,0.1361,0.1357,0.1353,0.135,0,0.1118,0.1126,0.1173,0.1184,0.1198,0.1234,0.125,0.1302,0.1327,0.1386,0.1391,0.1426,0.1402,0.1381,0.1336,0.1311,0.1401,0.115,0.1153,0.1368,0.1372,0.1375,0.1378,0.1025,0.1019,0.1015,0.1011,0,0.109,0.1123,0.1149,0.1166,0.1184,0.1206,0.1233,0.1242,0.1292,0.1307,0.1301,0.1301,0.1243,0.1133,0.1059,0.1039,0.1152,0.1051,0.1347,0.1107,0.1039,0.1044,0.106,0.0971,0.0975,0.0978,0.098,0.0981,0.1085,0.1092,0.1127,0.1142,0.1163,0.1164,0.1149,0.1163,0.1163,0.1143,0.1173,0.1095,0.1062,0.088,0.0808,0.0738,0.0858,0.0823,0.0841,0.0863,0.0801,0.0727,0.0587,0.0589,0.059,0.0592,0.0593,0,0.1063,0.1076,0.1086,0.1098,0.1097,0.1127,0.1121,0.1076,0.102,0.0997,0.0957,0.0799,0.0679,0.0654,0.0477,0.0425,0.0472,0.0396,0.0475,0.0513,0.0548,0.0475,0.0172,0.0171,0.017,0.0169,0,0,0.1059,0.1063,0.1056,0.103,0.103,0.0991,0.0971,0.0899,0.0855,0.0746,0.0671,0.0681,0.0648,0.0438,0.0364,0.0245,0.0391,0.0212,0.0548,0.0683,0.0717,0.0781,0.0708,0,0,0,0,0]},{"header":{"parameterUnit":"m.s-1","parameterCategory":2,"la1":30.2991,"la2":30.254,"lo1":-89.0895,"lo2":-89.0444,"dy":0.0017,"dx":0.0017,"nx":28,"ny":28,"refTime":"2023-09-07T03:00:00:Z","depth":"2","parameterNumber":3,"parameterNumberName":"V-component_of_CURRENTS"},"data":[0,0,0,0,0,0,0,0,0,0,0,0,0,0,0,0,0,0,0,0,0,0,0,0,0,0,0,0,0,0,0,0,0,0,0,0,0,0,0,0,0,0,0,0,0,0,0,0,0,0,0,0,0,0,0,0,0,0,0.0213,0.0213,0,0.0257,0.0258,0.0259,0.0275,0.0274,0.0273,0.0273,0.027,0.0271,0.0272,0,0,0,0,0,0,0,0,0,0,0,0,0,0.0194,0.0194,0.0213,0.0213,0.0212,0.0257,0.0258,0.0259,0.0275,0.0274,0.0273,0.0272,0.027,0.0271,0.0272,0,0,0,0,0,0,0,0,0,0,0,0,0,0.0223,0.0195,0.0213,0.0221,0.0221,0.0256,0.0258,0.0259,0.0275,0.0274,0.0273,0.0272,0.027,0.0271,0.0272,0.0301,0,0,0.0275,0.0275,0,0,0,0,0,0,0,0,0.0221,0.0224,0.022,0.022,0.0221,0.0253,0.025,0.0269,0.0276,0.0262,0.0273,0.0271,0.0257,0.0259,0.028,0.0301,0.0301,0.0275,0.0275,0.0276,0.0276,0,0,0,0,0,0,0,0.0219,0.0223,0.0237,0.022,0.022,0.0239,0.0243,0.0255,0.027,0.0263,0.0263,0.0257,0.0257,0.0279,0.028,0.0301,0.0275,0.0276,0.0276,0.0277,0.0325,0.0326,0,0,0,0,0,0,0.0199,0.0221,0.0235,0.0238,0.021,0.024,0.0244,0.025,0.0271,0.0271,0.0258,0.0258,0.0278,0.0279,0.0279,0.0289,0.0276,0.0277,0.0277,0.0325,0.0326,0.0326,0,0,0,0,0,0,0.0198,0.02,0.0234,0.0224,0.0229,0.024,0.0248,0.0251,0.0254,0.0266,0.0267,0.0254,0.0277,0.0278,0.0287,0.0289,0.0277,0.0278,0.0324,0.0325,0.0326,0.0324,0,0,0,0,0,0,0.0198,0.02,0.0208,0.0223,0.0228,0.0242,0.0248,0.0252,0.025,0.025,0.0263,0.0263,0.0276,0.0286,0.0288,0.0291,0.0279,0.0323,0.0324,0.0326,0.0323,0.0325,0.0326,0,0,0,0,0,0.0197,0.0206,0.0208,0.021,0.0235,0.0241,0.0247,0.0255,0.0251,0.0255,0.0269,0.0262,0.0296,0.0287,0.029,0.0293,0.0322,0.0324,0.0326,0.0322,0.0324,0.0326,0,0,0,0,0,0,0.0186,0.0208,0.0211,0.0222,0.0224,0.0241,0.0247,0.0247,0.0265,0.0262,0.0272,0.0274,0.028,0.0291,0.0281,0.0312,0.0307,0.031,0.0304,0.0306,0.0308,0.0325,0.028,0,0,0,0,0,0.019,0.021,0.0216,0.022,0.0224,0.0233,0.0238,0.0239,0.025,0.0256,0.0272,0.0287,0.0295,0.0301,0.0314,0.0334,0.0341,0.0338,0.034,0.0341,0.0358,0.0374,0.0378,0.0332,0.0332,0.0332,0,0,0.0177,0.0196,0.0202,0.0221,0.0228,0.0245,0.0235,0.0235,0.0253,0.0252,0.0289,0.0287,0.0299,0.0321,0.0325,0.0327,0.0354,0.0343,0.0344,0.036,0.0376,0.038,0.0384,0.0333,0.0332,0.0332,0,0,0.0173,0.0186,0.0207,0.0217,0.0226,0.024,0.0233,0.025,0.0262,0.0286,0.0289,0.0291,0.0319,0.0333,0.0339,0.0358,0.0355,0.0356,0.0385,0.04,0.0404,0.0407,0.0403,0.0407,0.0365,0.0365,0.0365,0,0.0158,0.0194,0.0206,0.023,0.0242,0.0235,0.0252,0.027,0.029,0.0311,0.0295,0.0335,0.0329,0.0357,0.0363,0.036,0.0366,0.0372,0.0401,0.0405,0.0409,0.0404,0.0408,0.0365,0.0365,0.0365,0.0365,0,0.0177,0.0205,0.0212,0.0255,0.0266,0.0275,0.0293,0.0314,0.0322,0.0344,0.0366,0.0364,0.0391,0.038,0.0376,0.0402,0.0395,0.0392,0.0393,0.0413,0.0407,0.0411,0.0365,0.0365,0.0365,0.0365,0,0,0.0147,0.0217,0.022,0.0252,0.0282,0.0294,0.0328,0.0367,0.0396,0.0409,0.0444,0.0446,0.0442,0.0449,0.0435,0.0444,0.0453,0.0434,0.0434,0.0425,0.0477,0.047,0.0474,0.0456,0.0457,0.0458,0.0455,0,0.016,0.0222,0.025,0.0297,0.0329,0.0347,0.0384,0.0415,0.0438,0.0476,0.047,0.049,0.0469,0.0466,0.0475,0.0459,0.0467,0.0453,0.0466,0.0466,0.0453,0.048,0.0489,0.0489,0.0459,0.046,0.046,0,0.0178,0.0224,0.0279,0.0345,0.0358,0.0382,0.0442,0.0471,0.0518,0.0536,0.0558,0.0552,0.0563,0.053,0.0537,0.0532,0.0513,0.0496,0.0495,0.0499,0.0468,0.0469,0.0497,0.0467,0.0466,0.0466,0.0465,0,0.0177,0.0245,0.0297,0.0317,0.0385,0.0411,0.0441,0.0492,0.0529,0.057,0.0594,0.0609,0.0609,0.06,0.0567,0.0557,0.0565,0.0544,0.0522,0.0519,0.0537,0.0535,0.0556,0.0556,0.0556,0.0556,0.0556,0,0.02,0.0237,0.0302,0.033,0.0389,0.0419,0.0477,0.0515,0.056,0.0612,0.062,0.0651,0.063,0.0628,0.0592,0.0575,0.059,0.054,0.0529,0.0534,0.0532,0.0526,0.0522,0.0556,0.0556,0.0556,0.0556,0,0.0203,0.0245,0.0304,0.0371,0.0395,0.0432,0.0499,0.0542,0.0581,0.0642,0.0654,0.069,0.0694,0.0663,0.0641,0.0611,0.0584,0.057,0.0568,0.0558,0.0518,0.0514,0.0551,0.0551,0.0551,0.0551,0.0551,0,0.0228,0.026,0.0327,0.0363,0.0397,0.0454,0.05,0.0551,0.0598,0.0671,0.0703,0.0722,0.0751,0.0715,0.0666,0.0614,0.0593,0.0578,0.0564,0.0537,0.0522,0.0519,0.0516,0.0574,0.0574,0.0574,0.0574,0,0.0271,0.0279,0.0321,0.0386,0.0437,0.05,0.0563,0.0601,0.0666,0.0716,0.0779,0.08,0.0785,0.075,0.068,0.0641,0.0587,0.0579,0.0572,0.0573,0.0559,0.0544,0.054,0.0576,0.0576,0.0576,0.0575,0.0575,0.0289,0.0318,0.036,0.0419,0.0474,0.0536,0.058,0.0645,0.0712,0.0782,0.0812,0.0831,0.0811,0.0718,0.0663,0.0594,0.0607,0.057,0.057,0.0569,0.0572,0.0559,0.0575,0.0575,0.0575,0.0574,0.0574,0,0.0322,0.0347,0.04,0.0458,0.0505,0.0537,0.0621,0.066,0.0728,0.0785,0.0831,0.0781,0.0761,0.0704,0.0619,0.058,0.0569,0.0543,0.0545,0.0546,0.0546,0.0547,0.0543,0.0542,0.0541,0.0541,0,0,0.034,0.0381,0.0399,0.0471,0.0511,0.0572,0.0613,0.0677,0.0724,0.0763,0.0767,0.0807,0.0767,0.0685,0.0645,0.0589,0.0566,0.0569,0.0606,0.0617,0.0616,0.0582,0.0587,0,0,0,0,0]}],[{"header":{"parameterUnit":"m.s-1","parameterCategory":2,"la1":30.2991,"la2":30.254,"lo1":-89.0895,"lo2":-89.0444,"dy":0.0017,"dx":0.0017,"nx":28,"ny":28,"refTime":"2023-09-07T03:00:00:Z","depth":"4","parameterNumber":2,"parameterNumberName":"U-component_of_CURRENTS"},"data":[0,0,0,0,0,0,0,0,0,0,0,0,0,0,0,0,0,0,0,0,0,0,0,0,0,0,0,0,0,0,0,0,0,0,0,0,0,0,0,0,0,0,0,0,0,0,0,0,0,0,0,0,0,0,0,0,0,0,0.0485,0.0486,0,0.0489,0.0489,0.0488,0.0499,0.05,0.0501,0.0502,0.0457,0.0455,0.0453,0,0,0,0,0,0,0,0,0,0,0,0,0,0.0437,0.0438,0.0485,0.0486,0.0487,0.0489,0.0489,0.0488,0.0499,0.05,0.0501,0.0503,0.0458,0.0455,0.0453,0,0,0,0,0,0,0,0,0,0,0,0,0,0.0445,0.0438,0.0485,0.0498,0.05,0.049,0.0489,0.0488,0.0499,0.05,0.0502,0.0503,0.0459,0.0456,0.0453,0.0406,0,0,0.0443,0.0442,0,0,0,0,0,0,0,0,0.0444,0.0445,0.0495,0.0497,0.0499,0.0502,0.0456,0.0461,0.0499,0.0491,0.0502,0.0504,0.0471,0.0467,0.0455,0.0404,0.0402,0.0443,0.0441,0.044,0.0439,0,0,0,0,0,0,0,0.0444,0.0445,0.0479,0.0496,0.0498,0.0487,0.0489,0.0456,0.0467,0.0492,0.0495,0.0507,0.0471,0.0458,0.0454,0.0402,0.0443,0.044,0.0438,0.0437,0.0425,0.0427,0,0,0,0,0,0,0.0459,0.0445,0.0479,0.048,0.0483,0.0488,0.049,0.0493,0.0469,0.0469,0.0505,0.0507,0.0463,0.0458,0.0453,0.0475,0.044,0.0437,0.0435,0.0424,0.0426,0.0427,0,0,0,0,0,0,0.0458,0.0462,0.0479,0.0469,0.0471,0.0488,0.0492,0.0493,0.0506,0.0481,0.0478,0.0521,0.0464,0.0457,0.0455,0.047,0.0436,0.0433,0.0422,0.0424,0.0427,0.0468,0,0,0,0,0,0,0.0456,0.0461,0.047,0.047,0.0473,0.0491,0.0491,0.0492,0.0513,0.0516,0.0492,0.0488,0.0464,0.046,0.0452,0.0465,0.043,0.042,0.0423,0.0426,0.0465,0.0472,0.0478,0,0,0,0,0,0.0454,0.0462,0.047,0.0475,0.0484,0.0492,0.0492,0.0503,0.0513,0.0518,0.0514,0.049,0.0474,0.0458,0.0449,0.0461,0.0419,0.0422,0.0426,0.0462,0.047,0.0477,0,0,0,0,0,0,0.0452,0.0465,0.0473,0.0487,0.0499,0.0497,0.0506,0.0514,0.0512,0.052,0.0495,0.049,0.0494,0.0478,0.0462,0.0472,0.0447,0.0449,0.0479,0.0486,0.0492,0.0518,0.0428,0,0,0,0,0,0.0455,0.0465,0.0476,0.0492,0.0496,0.0503,0.0511,0.0521,0.0522,0.0524,0.051,0.0503,0.0494,0.0493,0.0475,0.0471,0.0476,0.0481,0.0487,0.0492,0.051,0.0541,0.0551,0.0439,0.0439,0.0439,0,0,0.0465,0.0472,0.0481,0.0493,0.0498,0.0505,0.0509,0.0528,0.0536,0.0516,0.0519,0.0514,0.0498,0.0499,0.0501,0.0492,0.0525,0.0497,0.0501,0.0517,0.0546,0.0556,0.0566,0.0441,0.0441,0.044,0,0,0.0478,0.0488,0.0496,0.0503,0.0522,0.0522,0.0535,0.0542,0.0547,0.0552,0.0546,0.0571,0.0537,0.0548,0.0544,0.0578,0.0552,0.0565,0.0617,0.0646,0.0656,0.0664,0.0673,0.0682,0.0574,0.0574,0.0574,0,0.0487,0.0496,0.0502,0.0508,0.0518,0.0534,0.0542,0.0544,0.0554,0.0562,0.0564,0.0574,0.0568,0.0587,0.0612,0.0592,0.0593,0.0584,0.0654,0.0663,0.0671,0.0678,0.0687,0.0576,0.0576,0.0576,0.0576,0,0.0499,0.051,0.0516,0.0525,0.0535,0.0547,0.0555,0.0567,0.058,0.0588,0.0615,0.0623,0.064,0.0644,0.0638,0.0691,0.0667,0.0651,0.0632,0.0684,0.0688,0.0697,0.058,0.0579,0.0578,0.0578,0,0,0.0501,0.0519,0.0522,0.0528,0.0544,0.0552,0.0566,0.0582,0.0604,0.0624,0.0655,0.068,0.0705,0.0707,0.071,0.0752,0.0815,0.0735,0.0735,0.0739,0.0863,0.0752,0.075,0.0803,0.0805,0.0806,0.0838,0,0.0505,0.0518,0.0527,0.0544,0.0546,0.0564,0.0576,0.0599,0.0619,0.065,0.0686,0.0712,0.0718,0.0742,0.0786,0.0805,0.0842,0.0807,0.0817,0.0817,0.0709,0.0759,0.0813,0.0845,0.0847,0.0848,0.0849,0,0.05,0.0511,0.0527,0.0547,0.0551,0.0569,0.06,0.0616,0.0661,0.0681,0.073,0.0747,0.0818,0.0815,0.0888,0.086,0.0877,0.0892,0.0892,0.0785,0.0724,0.0786,0.0865,0.0864,0.0863,0.0862,0.0861,0,0.0483,0.0504,0.0517,0.0524,0.0554,0.0572,0.0594,0.0634,0.0655,0.0714,0.0745,0.0804,0.0847,0.0888,0.0923,0.091,0.0989,0.0967,0.0881,0.0872,0.0942,0.0933,0.1027,0.1027,0.1027,0.1027,0.1027,0,0.0463,0.0472,0.0515,0.0524,0.055,0.0573,0.0611,0.064,0.0693,0.0726,0.0771,0.0803,0.0872,0.0911,0.0937,0.0931,0.0998,0.0904,0.0881,0.0957,0.0949,0.0947,0.0938,0.1028,0.1028,0.1027,0.1027,0,0.0424,0.0454,0.0478,0.0526,0.0542,0.0565,0.0622,0.0648,0.0699,0.0747,0.0769,0.0824,0.0861,0.0903,0.0965,0.0934,0.0949,0.0928,0.1003,0.0981,0.0809,0.0802,0.0837,0.0834,0.0831,0.0828,0.0826,0,0.0399,0.041,0.0481,0.0505,0.0529,0.0568,0.0595,0.0651,0.0674,0.0746,0.0761,0.0812,0.0838,0.0838,0.0883,0.0899,0.0887,0.0881,0.0859,0.082,0.0794,0.0791,0.0788,0.0822,0.0821,0.082,0.0819,0,0.036,0.0401,0.0432,0.0488,0.0528,0.0549,0.0589,0.0604,0.0662,0.0718,0.0729,0.0737,0.0762,0.0782,0.079,0.0805,0.088,0.085,0.0856,0.0836,0.0801,0.0778,0.0778,0.0809,0.0811,0.0812,0.0812,0,0.0347,0.0363,0.0425,0.0464,0.0507,0.0514,0.054,0.056,0.059,0.0661,0.0663,0.0709,0.0758,0.0732,0.0749,0.074,0.0726,0.0699,0.0713,0.0724,0.0668,0.0607,0.0549,0,0,0,0,0,0.0334,0.0353,0.0391,0.0433,0.0467,0.0487,0.0526,0.055,0.0608,0.0596,0.0625,0.0639,0.0637,0.0658,0.0626,0.0691,0.073,0.0647,0.0707,0.0753,0.0765,0.0707,0,0,0,0,0,0,0.0331,0.0369,0.0383,0.0395,0.0407,0.0431,0.0454,0.0489,0.0478,0.0541,0.0546,0.0583,0.0597,0.0652,0.061,0.0615,0.0632,0.0674,0.0671,0.0746,0.0757,0.0766,0.0711,0,0,0,0,0]},{"header":{"parameterUnit":"m.s-1","parameterCategory":2,"la1":30.2991,"la2":30.254,"lo1":-89.0895,"lo2":-89.0444,"dy":0.0017,"dx":0.0017,"nx":28,"ny":28,"refTime":"2023-09-07T03:00:00:Z","depth":"4","parameterNumber":3,"parameterNumberName":"V-component_of_CURRENTS"},"data":[0,0,0,0,0,0,0,0,0,0,0,0,0,0,0,0,0,0,0,0,0,0,0,0,0,0,0,0,0,0,0,0,0,0,0,0,0,0,0,0,0,0,0,0,0,0,0,0,0,0,0,0,0,0,0,0,0,0,0.0322,0.0321,0,0.0346,0.0346,0.0347,0.0375,0.0375,0.0375,0.0375,0.0447,0.0448,0.045,0,0,0,0,0,0,0,0,0,0,0,0,0,0.0325,0.0325,0.0322,0.0321,0.0321,0.0346,0.0346,0.0347,0.0375,0.0375,0.0375,0.0375,0.0446,0.0448,0.045,0,0,0,0,0,0,0,0,0,0,0,0,0,0.0338,0.0325,0.0322,0.0335,0.0336,0.0345,0.0346,0.0347,0.0375,0.0375,0.0375,0.0375,0.0445,0.0448,0.0451,0.0468,0,0,0.0459,0.0461,0,0,0,0,0,0,0,0,0.0337,0.0338,0.0333,0.0334,0.0335,0.0353,0.0373,0.0388,0.0375,0.0365,0.0375,0.0375,0.0417,0.0422,0.0432,0.0471,0.0474,0.046,0.0461,0.0463,0.0463,0,0,0,0,0,0,0,0.0336,0.0338,0.0336,0.0333,0.0334,0.0348,0.035,0.0377,0.0395,0.0366,0.0367,0.0362,0.0418,0.0429,0.0434,0.0475,0.046,0.0462,0.0464,0.0465,0.0534,0.0534,0,0,0,0,0,0,0.0323,0.0337,0.0335,0.0336,0.0331,0.0347,0.035,0.0351,0.0394,0.0398,0.0362,0.0363,0.0425,0.0431,0.0437,0.0476,0.0463,0.0465,0.0467,0.0534,0.0534,0.0534,0,0,0,0,0,0,0.0323,0.0323,0.0334,0.0333,0.0335,0.0347,0.0348,0.0352,0.0364,0.0389,0.0396,0.037,0.0425,0.0433,0.0466,0.0479,0.0467,0.0469,0.0534,0.0534,0.0534,0.0545,0,0,0,0,0,0,0.0323,0.0323,0.0327,0.0332,0.0334,0.0344,0.0348,0.0352,0.0359,0.0361,0.0399,0.0405,0.0426,0.0462,0.0469,0.0482,0.0471,0.0534,0.0534,0.0534,0.0544,0.0545,0.0546,0,0,0,0,0,0.0323,0.0322,0.0327,0.0327,0.0337,0.0343,0.0347,0.0358,0.0359,0.0369,0.0394,0.0404,0.0468,0.0465,0.0473,0.0487,0.0534,0.0534,0.0534,0.0544,0.0545,0.0546,0,0,0,0,0,0,0.0322,0.0325,0.033,0.033,0.0338,0.0346,0.0353,0.0357,0.0384,0.0388,0.0413,0.0422,0.0456,0.0466,0.0462,0.0505,0.05,0.0502,0.0504,0.0506,0.0507,0.051,0.0474,0,0,0,0,0,0.0323,0.0327,0.0331,0.0332,0.0336,0.0346,0.035,0.0356,0.0373,0.0385,0.0412,0.0437,0.0463,0.0479,0.0506,0.0533,0.0525,0.0543,0.0544,0.0545,0.0552,0.054,0.054,0.0535,0.0535,0.0535,0,0,0.0316,0.0323,0.0322,0.0333,0.0341,0.0354,0.035,0.0356,0.0375,0.0389,0.043,0.0446,0.0471,0.0504,0.0519,0.0515,0.0542,0.0546,0.0546,0.0553,0.054,0.0541,0.0541,0.0536,0.0536,0.0536,0,0,0.0313,0.0318,0.0325,0.0337,0.0348,0.0357,0.0357,0.0372,0.0389,0.0423,0.0435,0.0457,0.0503,0.0521,0.0536,0.0555,0.0549,0.0558,0.0569,0.0557,0.0557,0.0557,0.0544,0.0543,0.0557,0.0557,0.0557,0,0.0308,0.0323,0.0327,0.0344,0.0356,0.0359,0.0374,0.0391,0.0417,0.0434,0.0438,0.0493,0.0513,0.0546,0.0554,0.056,0.0547,0.0565,0.0558,0.0558,0.0558,0.0544,0.0543,0.0557,0.0557,0.0557,0.0557,0,0.0315,0.0332,0.0337,0.0365,0.0378,0.0388,0.0408,0.0429,0.0447,0.0463,0.0501,0.0524,0.0554,0.0559,0.0569,0.058,0.0568,0.0561,0.0555,0.0559,0.0544,0.0542,0.0558,0.0558,0.0558,0.0558,0,0,0.0288,0.0333,0.0337,0.0362,0.0391,0.0402,0.0435,0.0465,0.0485,0.0513,0.054,0.058,0.058,0.0595,0.0599,0.0592,0.058,0.0577,0.0576,0.0563,0.0547,0.0535,0.0532,0.0566,0.0566,0.0566,0.0534,0,0.0296,0.0335,0.0355,0.0394,0.0416,0.0438,0.0469,0.0497,0.0522,0.0549,0.0566,0.0595,0.0597,0.0607,0.06,0.0589,0.0577,0.059,0.0545,0.0544,0.0533,0.0531,0.0566,0.0533,0.0533,0.0533,0.0532,0,0.0301,0.033,0.037,0.0422,0.0432,0.0455,0.0501,0.0529,0.0563,0.0582,0.0603,0.0614,0.0624,0.0615,0.0597,0.0601,0.0578,0.0562,0.056,0.0547,0.053,0.0529,0.0529,0.053,0.053,0.053,0.053,0,0.0292,0.0342,0.0378,0.0396,0.0448,0.0472,0.0499,0.0539,0.0566,0.0598,0.0613,0.0625,0.0632,0.0608,0.0589,0.0587,0.0554,0.0546,0.0513,0.0511,0.0527,0.0527,0.0524,0.0524,0.0524,0.0524,0.0524,0,0.03,0.0331,0.0378,0.0399,0.0439,0.0473,0.0515,0.0543,0.0578,0.0606,0.0625,0.064,0.0628,0.0615,0.0587,0.0548,0.0552,0.0517,0.0504,0.0531,0.0532,0.0525,0.0526,0.0523,0.0523,0.0524,0.0524,0,0.0299,0.0329,0.037,0.042,0.044,0.0468,0.0526,0.0553,0.0583,0.0617,0.0628,0.0647,0.0634,0.0616,0.0577,0.0548,0.051,0.0493,0.0526,0.0515,0.0474,0.0476,0.0451,0.045,0.045,0.0449,0.0449,0,0.0307,0.0327,0.0378,0.0399,0.0427,0.0473,0.0506,0.0552,0.0579,0.062,0.0632,0.0637,0.0644,0.0578,0.0559,0.0505,0.0496,0.0469,0.0474,0.0478,0.0467,0.047,0.0472,0.0448,0.0448,0.0448,0.0448,0,0.0315,0.0329,0.0358,0.0398,0.0435,0.048,0.0528,0.0544,0.0593,0.062,0.0628,0.0615,0.06,0.0568,0.0531,0.0492,0.0484,0.0463,0.0464,0.0468,0.0474,0.0465,0.0467,0.0446,0.0446,0.0446,0.0446,0,0.0312,0.0327,0.0357,0.0394,0.0438,0.0475,0.0505,0.0538,0.0567,0.0608,0.0606,0.0604,0.0608,0.056,0.0526,0.0491,0.0479,0.0453,0.0454,0.0456,0.0471,0.048,0.0442,0,0,0,0,0,0.0308,0.0323,0.0353,0.0389,0.0431,0.046,0.0515,0.0542,0.0583,0.0582,0.0594,0.0581,0.0544,0.0536,0.0497,0.0514,0.0474,0.0466,0.0444,0.0435,0.0437,0.0453,0,0,0,0,0,0,0.0303,0.0329,0.0344,0.038,0.0403,0.0453,0.0488,0.0518,0.0521,0.0553,0.0535,0.0548,0.0515,0.0556,0.0485,0.048,0.0455,0.046,0.0459,0.0434,0.0436,0.0438,0.0455,0,0,0,0,0]}]]